Location: Austin
(30.3000°N, 97.7500°W)
Time: 01:45:58
(UTC-05:00)

SL-24 R/B - RUBIN 2 - Pass Details

Date: 15 May 2024
Orbit: 568 x 1023 km, 64.6° (Epoch: 19 May)

Event Time Altitude Azimuth Distance (km) Brightness Sun altitude
Exits shadow 22:36:03 43° 200° (SSW) 1,216 4.8 -25.6°
Maximum altitude 22:38:08 84° 116° (ESE) 914 4.2 -25.9°
Drops below altitude 10° 22:44:33 10° 29° (NNE) 2,720 7.0 -26.9°
Sets 22:47:14 0° 29° (NNE) 3,712 7.8 -27.3°
